This is the latest recevied weather packets stored in our database for station/object K4IR. If no packets are shown the sender has not sent any weather packets the latest 1 day(s).
| Time | Temp. | Humidity | Pressure | Rain* | Wind** | Luminosity | Snow |
|---|---|---|---|---|---|---|---|
| 1778040115 | 12.78° C | 96% | 1017.2 hPa | 0 mm | 0 m/s | 0 W/m² | - |
| 1778039515 | 12.78° C | 96% | 1017.5 hPa | 0 mm | 0 m/s | 0 W/m² | - |
| 1778038914 | 12.78° C | 96% | 1017.5 hPa | 0 mm | 0 m/s | 0 W/m² | - |
| 1778038314 | 13.33° C | 96% | 1017.7 hPa | 0 mm | 0 m/s | 0 W/m² | - |
| 1778037714 | 13.33° C | 96% | 1017.3 hPa | 0 mm | 0 m/s | 0 W/m² | - |
| 1778037114 | 13.33° C | 96% | 1017.6 hPa | 0 mm | 0 m/s | 0 W/m² | - |
| 1778036509 | 13.89° C | 95% | 1017.7 hPa | 0 mm | 0 m/s | 0 W/m² | - |
| 1778035908 | 13.89° C | 95% | 1017.6 hPa | 0 mm | 0 m/s | 0 W/m² | - |
| 1778035308 | 13.89° C | 95% | 1017.6 hPa | 0 mm | 0 m/s | 0 W/m² | - |
| 1778034707 | 13.89° C | 94% | 1017.6 hPa | 0 mm | 0 m/s | 0 W/m² | - |
| 1778034107 | 13.89° C | 94% | 1017.7 hPa | 0 mm | 0 m/s | 0 W/m² | - |
| 1778033502 | 14.44° C | 93% | 1017.5 hPa | 0 mm | 0 m/s | 0 W/m² | - |
| 1778032903 | 15° C | 93% | 1017.4 hPa | 0 mm | 0 m/s | 0 W/m² | - |
| 1778032297 | 15° C | 92% | 1017.6 hPa | 0 mm | 0 m/s | 0 W/m² | - |
| 1778031696 | 15° C | 92% | 1017.4 hPa | 0 mm | 0 m/s | 0 W/m² | - |
| 1778031091 | 15.56° C | 91% | 1017.3 hPa | 0 mm | 0 m/s | 0 W/m² | - |
| 1778030489 | 15.56° C | 90% | 1017 hPa | 0 mm | 0 m/s | 0 W/m² | - |
| 1778029889 | 16.11° C | 89% | 1017.3 hPa | 0 mm | 0 m/s | 0 W/m² | - |
| 1778029285 | 16.11° C | 88% | 1017.3 hPa | 0 mm | 0 m/s | 0 W/m² | - |
| 1778028684 | 16.67° C | 87% | 1017.4 hPa | 0 mm | 0 m/s | 0 W/m² | - |
| 1778028084 | 16.67° C | 86% | 1017.5 hPa | 0 mm | 0 m/s | 0 W/m² | - |
| 1778027482 | 17.22° C | 84% | 1017.2 hPa | 0 mm | 0 m/s | 0 W/m² | - |
| 1778026880 | 17.78° C | 82% | 1017 hPa | 0 mm | 0 m/s | 0 W/m² | - |
| 1778026279 | 18.33° C | 80% | 1017.4 hPa | 0 mm | 0 m/s | 1 W/m² | - |
| 1778025679 | 18.33° C | 78% | 1017.1 hPa | 0 mm | 0 m/s | 2 W/m² | - |
* Rain latest hour (hover to see other rain measurements)
** Current wind speed in m/s (hover to see current wind gust speed)